Weather History for Alexandria, LA

Change the Weather History Date:

Wednesday, January 22, 2014

  Actual Average Record
Temperature  
Mean Temperature 41 °F 49 °F  
Max Temperature 57 °F 59 °F 80 °F (1982)
Min Temperature 24 °F 38 °F 15 °F (1985)
Degree Days  
Heating Degree Days 24 16  
Month to date heating degree days 432 352  
Since 1 July heating degree days 1317 1141  
Moisture  
Dew Point 26 °F    
Average Humidity 55    
Maximum Humidity 81    
Minimum Humidity 29    
Precipitation  
Precipitation 0.00 in 0.18 in 3.65 in (1916)
Month to date precipitation 1.43 3.48  
Year to date precipitation 1.43 3.48  
Snow  
Snow 0.00 in - 5.00 in (1935)
Month to date snowfall 0.0  
Since 1 July snowfall 0.0  
Snow Depth 0.00 in    
Sea Level Pressure  
Sea Level Pressure 30.20 in    
Wind  
Wind Speed 5 mph (SE)    
Max Wind Speed 12 mph    
Max Gust Speed 13 mph    
Visibility 10 miles    
Events      
T = Trace of Precipitation, MM = Missing Value Source: NWS Daily Summary

Daily Weather History Graph

Daily Weather History Graph

Search for Another Location

Airport:

Trip Planner

Search our weather history database for the weather conditions in past years. The results will help you decide how hot, cold, wet, or windy it might be!

Date:

Astronomy

Jan. 22, 2014 Rise Set
Actual Time 7:07 AM CST 5:36 PM CST
Civil Twilight 6:41 AM CST 6:02 PM CST
Nautical Twilight 6:12 AM CST 6:31 PM CST
Astronomical Twilight 5:43 AM CST 7:00 PM CST
Moon 11:41 PM CST (1/22) 10:34 AM CST (1/22)
Length of Visible Light 11h 20m
Length of Day
10h 28m
Waning Gibbous, 65% of the Moon is Illuminated
Jan 22
Waning Gibbous
Jan 23
Last Quarter
Jan 30
New
Feb 6
First Quarter
Feb 14
Full

Hourly Weather History & Observations

Time (CST) Temp. Windchill Dew Point Humidity Pressure Visibility Wind Dir Wind Speed Gust Speed Precip Events Conditions
12:53 AM 32.0 °F 27.5 °F 19.0 °F 59% 30.25 in 10.0 mi East 4.6 mph - N/A   Clear
1:53 AM 28.9 °F - 19.9 °F 69% 30.25 in 10.0 mi Calm Calm - N/A   Clear
2:53 AM 28.0 °F - 21.0 °F 75% 30.26 in 10.0 mi Calm Calm - N/A   Clear
3:53 AM 28.0 °F - 19.9 °F 72% 30.24 in 10.0 mi Calm Calm - N/A   Clear
4:53 AM 27.0 °F - 19.9 °F 75% 30.23 in 10.0 mi Calm Calm - N/A   Clear
5:53 AM 26.1 °F 19.4 °F 21.0 °F 81% 30.23 in 10.0 mi SE 5.8 mph - N/A   Clear
6:53 AM 27.0 °F 20.5 °F 21.0 °F 78% 30.23 in 10.0 mi ESE 5.8 mph - N/A   Clear
7:53 AM 30.0 °F 23.2 °F 23.0 °F 75% 30.24 in 10.0 mi ESE 6.9 mph - N/A   Clear
8:53 AM 34.0 °F 26.0 °F 23.0 °F 64% 30.25 in 10.0 mi SE 10.4 mph - N/A   Clear
9:53 AM 39.0 °F 32.8 °F 24.1 °F 55% 30.27 in 10.0 mi SE 9.2 mph - N/A   Clear
10:53 AM 43.0 °F 39.5 °F 24.1 °F 47% 30.25 in 10.0 mi South 5.8 mph - N/A   Clear
11:53 AM 48.0 °F - 24.1 °F 39% 30.22 in 10.0 mi SSE 6.9 mph - N/A   Clear
12:53 PM 51.1 °F - 24.1 °F 35% 30.19 in 10.0 mi Variable 5.8 mph - N/A   Clear
1:53 PM 54.0 °F - 23.0 °F 30% 30.16 in 10.0 mi Calm Calm - N/A   Clear
2:53 PM 55.9 °F - 25.0 °F 30% 30.14 in 10.0 mi SE 8.1 mph - N/A   Clear
3:53 PM 55.9 °F - 26.1 °F 32% 30.14 in 10.0 mi East 8.1 mph - N/A   Clear
4:53 PM 54.0 °F - 28.0 °F 37% 30.13 in 7.0 mi ESE 9.2 mph - N/A   Clear
5:53 PM 48.9 °F - 30.0 °F 48% 30.14 in 10.0 mi ESE 6.9 mph - N/A   Clear
6:53 PM 46.0 °F 43.9 °F 30.9 °F 56% 30.14 in 10.0 mi ESE 4.6 mph - N/A   Clear
7:53 PM 46.0 °F 43.1 °F 30.9 °F 56% 30.14 in 10.0 mi SE 5.8 mph - N/A   Clear
8:53 PM 46.9 °F - 30.9 °F 54% 30.16 in 10.0 mi SSE 5.8 mph - N/A   Clear
9:53 PM 45.0 °F 41.2 °F 36.0 °F 71% 30.17 in 10.0 mi SSE 6.9 mph - N/A   Clear
10:53 PM 43.0 °F 39.5 °F 36.0 °F 76% 30.17 in 10.0 mi SSE 5.8 mph - N/A   Clear
11:53 PM 43.0 °F 40.3 °F 36.0 °F 76% 30.18 in 10.0 mi SE 4.6 mph - N/A   Clear